RH
45 60 83 93 94 93 93 93 90 83 76 72 71 72 73 74 73 72 76 82 83 83 84 85 85 84 85 86 85 84 84 82 79 79 82 85 84 81 81 82 83 85 86 84 81 79 76 73 71 69 67 66
46 53 70 85 94 97 97 97 95 90 86 84 85 87 86 83 82 82 85 89 91 91 92 93 93 96 97 95 91 89 89 88 87 88 89 92 93 88 86 88 89 90 88 85 82 78 75 71 68 65 64 63
48 49 58 73 85 93 96 97 97 94 91 89 91 94 93 91 89 89 90 93 95 96 96 98 99 101 99 97 94 91 88 86 86 89 91 95 97 92 88 89 89 89 87 84 81 77 72 67 64 63 61 60
45 44 50 62 72 82 88 93 94 92 91 92 95 98 98 97 95 94 96 97 98 99 99 100 102 101 97 94 91 87 81 76 74 76 82 90 96 92 88 88 87 86 84 81 78 74 69 64 62 60 57 59
49 50 54 59 62 69 76 82 84 82 82 84 88 93 96 98 98 98 98 100 100 100 101 100 100 98 92 88 85 78 70 66 63 61 63 70 79 83 83 85 83 82 79 77 75 70 65 61 58 55 57 64
61 57 58 64 58 55 61 68 70 69 68 69 70 75 80 84 89 91 92 92 91 90 90 89 87 82 76 71 70 64 53 49 50 49 47 47 51 58 64 69 72 73 72 71 68 64 61 58 54 53 56 61
69 61 63 72 65 49 47 57 62 61 61 60 59 60 62 64 67 71 76 75 71 67 65 62 59 55 50 46 45 43 35 30 31 31 31 30 30 32 36 40 45 49 51 53 53 53 52 49 47 50 57 60
72 70 77 76 73 63 48 53 64 65 63 60 58 57 56 55 56 56 58 57 52 48 44 41 38 35 33 32 32 31 29 27 25 24 23 22 21 20 20 21 23 24 26 28 31 33 34 37 40 50 63 65
76 81 90 84 84 82 64 65 76 77 71 68 67 61 57 56 54 51 47 44 41 38 35 32 31 30 30 34 37 34 34 37 36 34 32 29 28 27 25 23 20 18 17 18 18 18 25 33 39 53 68 66
92 89 91 90 90 82 73 81 90 89 79 74 78 70 62 58 51 47 43 40 37 35 33 34 33 33 35 41 46 46 44 46 47 45 43 41 41 40 38 35 31 27 25 24 22 21 25 31 43 62 71 68
98 96 92 92 90 80 79 89 93 96 86 80 88 80 68 60 50 44 39 37 36 35 37 40 39 38 42 47 50 53 51 50 50 49 49 49 49 47 45 43 41 38 35 32 31 30 31 33 49 70 75 72
90 93 96 97 96 92 92 93 90 96 93 89 94 89 78 67 54 43 40 49 58 60 52 42 37 37 44 48 49 53 53 50 50 53 54 54 53 51 49 48 46 45 42 39 36 36 44 49 56 70 73 66
89 89 96 99 99 98 99 98 95 96 96 95 94 91 89 79 66 57 59 75 84 80 64 48 42 44 47 50 52 54 55 53 54 62 65 62 60 58 55 53 52 51 48 46 43 42 57 69 70 76 75 62
95 91 95 99 99 99 100 100 99 99 99 100 97 95 96 89 83 81 84 93 96 86 75 68 67 69 69 69 70 68 65 61 62 70 73 70 70 68 64 61 59 57 55 53 52 57 73 82 82 85 81 68
97 92 93 98 99 98 100 99 99 99 99 102 100 98 98 95 93 93 92 97 98 92 90 90 88 89 90 88 90 90 86 81 82 85 83 82 81 77 73 71 69 67 66 62 61 73 87 88 85 87 88 81
92 92 92 97 99 99 100 100 99 98 100 102 99 98 99 98 97 94 92 95 95 94 98 96 92 96 99 96 98 100 99 96 97 98 95 95 94 90 85 81 78 76 75 71 69 81 93 95 95 94 91 84
76 85 88 92 97 98 100 99 99 100 100 100 99 99 100 99 100 95 93 97 97 99 99 93 92 97 100 100 99 99 100 99 100 101 100 100 100 99 96 90 84 82 84 84 86 93 97 97 95 88 82 77
58 70 77 83 88 93 97 99 99 100 99 99 99 100 100 99 100 99 98 100 100 100 97 94 98 98 97 100 99 99 100 98 98 100 100 100 100 100 100 97 93 92 96 97 98 97 90 84 79 77 78 81
43 55 64 70 75 82 89 93 95 98 100 99 99 100 100 99 99 100 100 100 99 98 94 96 102 97 92 96 99 101 100 97 97 99 100 100 99 100 100 100 99 99 101 99 97 90 79 76 75 77 79 81
34 42 51 57 62 68 74 80 86 93 98 99 100 99 99 100 100 100 99 97 97 99 98 99 101 96 93 96 99 101 99 98 99 99 100 100 100 100 100 100 100 100 100 100 99 90 80 77 75 73 75 77
30 36 43 49 53 57 60 64 70 81 89 93 97 96 94 98 100 100 100 98 98 101 101 99 97 95 97 99 100 100 100 99 100 100 99 100 100 100 100 100 100 100 100 101 100 93 87 86 83 80 78 81
25 33 41 47 50 52 54 56 59 67 76 83 94 97 90 92 97 100 100 99 100 100 98 96 96 97 99 99 96 96 100 100 99 99 99 100 100 100 100 100 100 100 101 101 100 97 96 97 97 94 91 91
16 23 33 43 50 52 53 55 55 58 64 71 85 93 91 93 97 100 100 98 101 100 99 99 98 99 100 99 96 95 99 100 99 99 100 100 100 100 100 100 100 100 99 100 100 99 100 99 100 98 95 96
12 15 20 30 40 48 51 54 54 55 56 60 68 75 86 98 100 99 100 101 100 94 94 99 98 99 101 101 99 98 100 99 99 100 100 100 100 100 100 99 99 99 99 99 99 99 100 100 100 97 94 96
12 12 14 17 23 32 41 48 51 53 53 54 58 60 72 93 101 99 100 102 100 91 88 95 99 99 100 100 99 100 100 99 99 100 100 100 100 100 100 100 100 99 99 99 99 99 100 100 100 99 98 99
12 12 13 14 15 18 24 33 40 47 50 52 55 54 58 74 87 94 100 101 100 97 96 98 99 100 100 100 100 100 100 99 100 100 100 100 99 100 100 100 100 100 100 100 100 100 100 100 100 100 100 100
14 12 12 12 13 14 15 19 26 34 41 46 51 54 52 56 63 73 89 99 100 99 100 100 100 100 100 99 99 100 100 99 100 99 100 100 100 100 100 99 99 99 100 100 100 100 100 100 100 100 100 100
17 15 13 12 12 13 13 14 17 21 27 34 41 49 51 52 52 54 66 84 95 97 99 100 101 100 100 100 100 100 100 99 100 99 100 100 100 100 99 98 98 99 100 100 100 100 100 99 99 100 100 100
21 19 17 14 12 12 12 13 14 15 17 21 26 35 43 48 50 49 51 63 79 88 92 96 99 100 100 100 100 100 99 99 99 100 100 100 99 99 99 99 99 99 99 99 100 100 100 100 100 100 100 100
20 22 21 18 16 14 13 13 13 14 14 14 16 19 27 35 42 46 47 53 64 73 82 91 97 100 101 100 100 100 99 100 100 99 101 100 99 99 99 99 100 100 99 99 100 100 100 100 100 101 101 101
14 18 20 20 19 18 16 15 14 14 14 13 14 15 17 21 28 36 42 47 55 62 71 81 88 94 100 99 99 100 100 100 100 100 100 100 100 100 100 99 100 101 100 98 98 100 100 100 100 100 101 100
Wind_Speed
48 46 45 46 47 48 49 50 52 54 55 55 55 55 54 54 54 53 52 51 51 51 50 49 49 48 47 47 48 48 48 48 48 47 47 47 48 48 48 48 48 48 47 47 46 46 45 45 45 45 45 44
49 48 47 46 46 48 49 49 50 52 52 51 50 50 50 50 50 49 48 48 47 47 47 46 46 45 45 45 46 47 47 47 47 47 47 46 47 48 48 48 48 48 47 47 47 46 46 46 45 45 45 44
51 50 48 47 46 46 48 48 49 51 50 49 48 47 48 48 48 47 46 44 43 43 43 43 44 44 44 45 45 45 45 46 46 47 47 46 47 48 48 48 48 47 47 47 47 47 47 46 46 46 46 45
51 51 49 49 47 46 47 47 49 50 50 49 48 47 48 47 46 45 43 41 41 40 41 42 43 43 44 45 45 45 45 45 46 47 47 46 47 49 49 48 48 48 48 48 49 48 48 47 47 48 48 46
50 51 50 49 49 48 48 48 50 51 51 50 49 49 48 46 45 44 41 40 40 40 41 42 43 44 45 46 46 45 45 46 46 47 47 46 47 49 49 49 49 49 49 50 50 50 49 48 48 48 47 45
49 52 51 49 51 51 50 51 52 52 52 51 51 50 49 47 46 45 43 41 41 42 42 43 44 45 46 47 47 46 46 46 47 47 47 46 48 49 48 48 49 50 51 51 51 51 50 49 49 48 47 46
48 52 51 49 51 54 54 53 54 53 52 52 52 51 50 49 48 46 44 43 44 45 45 45 44 45 46 47 47 46 46 46 47 47 47 47 48 48 48 48 49 50 51 52 52 51 49 49 49 48 48 48
48 51 51 49 50 52 54 55 54 53 52 52 52 53 52 50 48 46 45 46 47 47 46 45 44 45 45 46 47 46 45 45 46 46 46 46 47 47 47 48 48 50 51 51 51 50 49 48 48 48 48 49
48 50 50 48 49 52 53 52 52 52 52 52 53 53 53 49 47 47 47 48 49 49 48 47 45 45 44 44 46 47 46 45 46 46 46 47 47 47 47 48 49 50 51 51 51 50 48 48 48 48 48 50
49 52 53 50 52 55 54 50 49 52 52 51 52 52 52 49 47 47 48 49 51 51 51 49 47 46 45 45 46 49 48 46 47 47 48 48 48 48 48 50 51 51 52 52 52 50 49 49 48 49 50 51
50 50 53 52 53 54 54 51 48 50 51 51 52 51 51 48 47 47 48 50 52 53 53 51 49 47 47 47 47 50 51 50 49 49 49 49 50 50 51 51 52 53 53 54 53 51 50 50 48 49 51 52
53 50 51 51 52 52 53 52 50 50 50 49 50 50 49 48 48 47 47 50 53 53 53 52 51 50 49 49 49 51 53 53 52 51 51 51 52 52 52 52 53 54 55 55 54 52 51 51 50 51 53 54
53 52 51 52 52 50 50 51 51 51 50 49 50 50 49 49 49 48 47 50 53 54 55 55 53 52 51 52 52 53 55 56 54 52 53 53 53 53 53 54 54 54 55 55 54 52 51 51 52 52 54 55
53 53 51 53 54 51 48 50 51 50 47 48 52 52 51 50 48 48 47 49 54 56 55 54 53 53 53 52 53 54 56 56 55 54 54 54 54 54 55 55 55 55 56 55 54 52 51 52 53 53 55 56
55 55 54 52 53 53 50 49 49 47 45 48 54 56 53 50 49 50 51 53 55 55 54 53 53 53 53 53 53 54 55 55 55 55 55 55 55 56 56 56 55 55 56 55 53 52 51 53 54 54 55 55
58 58 59 55 52 53 53 52 49 43 42 50 57 58 55 52 52 53 54 56 56 56 55 54 53 54 54 55 55 54 55 54 54 54 55 55 56 56 56 56 56 56 56 56 53 52 52 52 52 53 55 56
62 61 61 61 57 54 53 53 54 50 48 52 55 54 54 52 54 57 57 57 57 56 57 56 55 55 55 55 55 55 56 56 55 55 56 56 57 58 58 58 58 57 56 55 53 52 52 53 54 55 57 57
65 64 64 64 63 61 57 53 53 56 56 55 52 50 51 52 53 54 55 55 56 58 59 58 56 56 54 54 56 57 57 58 58 58 59 60 61 61 61 60 59 57 54 54 54 54 55 55 56 57 56 55
65 65 65 65 65 66 65 60 56 56 57 54 50 49 50 52 53 52 50 51 58 61 58 54 54 55 54 55 57 59 60 61 61 62 62 62 62 61 60 61 60 57 56 57 57 57 57 56 56 56 56 56
61 64 66 66 67 67 68 67 64 61 58 54 52 51 49 48 50 51 48 52 61 60 54 53 52 53 55 58 61 61 59 59 61 62 62 61 61 60 60 59 58 57 57 59 58 57 57 56 57 57 56 56
57 61 64 65 66 68 68 68 69 68 65 62 60 59 55 50 47 48 49 55 60 55 53 54 52 54 58 60 63 61 57 57 60 61 61 60 60 59 58 57 56 56 58 60 59 58 57 56 57 57 57 56
58 57 60 63 65 67 67 67 68 69 70 68 65 63 63 61 55 50 48 50 52 52 55 55 55 59 60 58 60 60 59 61 61 60 60 60 59 58 57 57 58 58 59 60 59 58 58 58 59 59 58 58
60 58 58 60 62 65 66 66 66 67 70 70 67 64 63 64 62 56 51 47 46 50 55 57 58 60 59 59 62 64 63 61 59 58 58 59 59 58 57 57 58 59 59 59 58 59 60 60 60 60 60 59
60 60 59 59 61 63 65 66 66 66 68 69 69 68 64 63 61 60 56 50 48 51 53 55 58 61 62 63 62 62 59 56 56 57 57 58 58 58 57 56 57 58 59 60 60 60 62 62 62 63 63 64
60 62 61 60 60 61 63 65 66 66 67 67 69 69 68 65 62 61 59 51 49 53 53 53 58 63 66 64 59 56 53 52 54 55 56 57 57 57 57 58 58 58 58 59 60 60 60 61 61 62 64 65
60 62 63 63 62 62 62 64 66 66 66 67 68 68 69 70 67 65 60 50 46 53 55 57 61 64 65 64 62 59 52 50 53 54 55 58 59 59 59 60 59 59 60 61 61 62 63 63 62 62 62 63
59 61 63 65 65 65 63 63 64 66 66 66 67 68 69 72 73 71 67 57 50 52 57 62 63 61 58 59 61 60 53 50 53 54 54 55 58 60 61 61 61 62 64 64 61 61 62 63 64 64 62 60
58 59 61 63 65 67 66 65 64 65 66 66 66 67 68 70 73 74 74 69 62 57 58 63 64 61 59 58 58 58 56 53 54 55 53 51 51 55 58 58 59 59 57 55 54 53 54 55 55 56 54 53
58 59 60 62 63 66 67 67 67 66 66 67 67 67 67 68 70 73 74 74 71 67 64 63 64 64 63 61 59 58 59 58 56 55 54 52 49 52 56 54 52 52 48 47 50 49 48 49 50 50 49 50
58 59 60 61 62 63 65 66 68 68 67 67 67 68 68 68 68 70 72 73 72 71 69 67 65 64 59 54 55 58 60 61 61 59 57 56 53 54 59 59 55 52 46 44 49 49 48 49 50 51 52 52
54 58 60 61 62 62 64 65 67 68 69 68 67 68 69 70 70 69 71 72 71 70 70 69 69 67 60 52 52 57 60 62 64 63 60 59 59 58 60 62 61 57 50 45 47 50 50 52 53 53 53 53
Wind_Direction
249 248 247 245 244 244 244 245 246 246 247 248 251 253 255 257 258 259 260 261 261 261 260 260 260 261 262 263 263 263 263 263 263 264 264 265 265 266 266 266 267 267 267 268 269 269 269 270 270 271 271 272
250 250 250 248 246 246 245 245 247 248 248 249 250 252 254 255 255 256 257 258 259 259 259 260 260 261 261 262 263 264 264 264 265 265 265 266 266 266 266 266 266 267 268 269 269 270 270 271 271 271 271 272
250 251 251 252 251 249 248 247 248 249 249 249 249 251 252 253 254 255 257 257 257 258 258 258 259 260 261 261 262 264 265 266 266 266 266 266 266 266 266 266 267 267 268 269 269 270 270 271 272 272 272 272
251 252 253 254 255 254 253 251 250 250 250 250 250 251 252 253 255 256 257 257 257 256 257 257 257 259 259 260 261 263 264 265 266 266 266 266 266 267 267 268 269 269 269 269 270 270 271 272 273 274 274 274
254 254 254 255 256 255 255 255 253 252 252 252 252 252 253 254 256 257 257 258 258 257 257 256 256 258 259 260 260 262 263 264 265 265 266 266 266 267 268 269 270 269 270 270 271 271 272 273 273 274 275 275
256 256 255 256 256 255 255 255 254 254 255 255 255 255 256 257 258 259 260 261 261 260 258 257 257 258 260 260 260 261 262 262 263 264 265 265 265 267 268 268 269 269 270 270 271 272 273 273 274 274 274 274
252 256 256 256 257 256 255 255 255 255 256 257 258 258 259 259 260 261 263 264 263 261 260 259 259 259 260 261 261 260 261 262 262 263 264 264 265 267 267 268 268 269 269 270 271 272 273 274 274 275 275 275
244 251 254 255 257 257 255 256 257 258 258 258 258 259 259 260 262 263 263 263 263 262 261 261 261 260 261 262 263 262 262 263 264 265 265 266 267 268 268 269 269 269 270 271 271 272 273 274 275 276 276 275
239 245 249 250 252 254 254 255 257 259 258 259 259 259 259 260 262 263 263 263 263 263 263 262 262 262 262 264 266 266 265 266 266 267 267 268 269 270 270 270 270 271 271 272 272 273 274 274 275 275 274 275
237 240 245 246 247 250 253 254 255 257 258 259 261 261 261 260 260 262 263 264 264 265 264 264 263 264 264 264 266 268 268 268 268 269 269 270 271 271 270 270 271 271 272 272 273 274 273 273 274 273 273 274
239 241 243 247 248 250 252 252 252 255 258 259 261 262 262 261 260 261 263 266 266 265 265 264 264 265 265 265 266 268 269 269 269 270 271 271 271 270 270 270 271 271 272 271 272 273 273 273 272 271 271 272
241 241 242 246 249 250 252 253 253 253 256 257 259 261 261 262 261 260 262 264 264 263 263 264 265 265 265 266 266 267 269 269 269 270 270 270 270 270 270 270 270 271 271 272 273 273 272 272 270 269 269 270
239 240 242 245 247 248 251 252 252 251 252 255 256 258 259 260 260 260 260 259 260 261 263 264 265 265 265 265 266 266 267 268 269 269 269 269 269 269 269 270 270 270 271 272 273 273 271 270 270 269 269 271
236 238 240 243 245 246 248 250 252 252 254 258 257 256 257 258 259 259 256 255 258 261 264 266 267 267 266 266 266 266 267 268 269 269 268 268 268 269 269 269 269 269 269 270 270 270 269 268 268 269 270 272
236 237 239 242 245 246 247 249 252 252 253 257 258 256 256 257 256 255 254 255 258 263 266 267 269 270 269 268 268 268 268 268 269 268 268 268 268 268 269 269 269 269 268 268 268 267 267 267 268 269 269 270
240 239 241 243 245 245 247 248 249 248 248 250 253 255 256 255 255 255 255 256 259 262 264 266 268 270 270 270 270 269 269 269 269 269 270 270 268 269 269 269 268 268 268 268 268 267 266 267 268 267 267 269
244 242 242 245 246 245 246 248 248 247 247 250 252 254 254 253 254 256 257 259 261 262 262 264 265 266 268 270 270 269 269 268 267 268 270 269 268 269 269 268 268 268 267 268 267 265 264 264 264 265 267 270
249 245 244 245 247 247 247 247 250 250 248 250 253 254 252 250 251 254 256 258 261 262 263 263 262 263 266 268 269 268 268 268 267 268 269 269 269 269 268 267 267 266 264 264 264 262 263 264 264 266 268 270
252 249 247 246 247 249 249 249 251 251 249 250 253 252 250 250 251 253 255 258 261 261 261 262 261 262 265 267 268 267 268 269 268 268 267 267 266 266 265 266 266 264 262 262 262 263 264 265 266 266 267 268
253 252 250 249 248 249 251 252 252 252 252 253 257 256 252 251 251 252 255 259 262 260 259 262 262 262 264 267 267 266 265 266 265 265 264 263 262 262 263 264 264 263 263 263 264 264 265 265 265 266 267 268
252 253 253 252 251 251 252 254 253 253 253 255 259 262 259 258 255 250 249 254 260 260 262 266 266 264 267 269 268 265 265 267 266 265 264 262 260 260 261 261 261 261 262 264 266 267 267 267 267 268 268 269
250 251 252 253 253 253 254 255 255 254 255 256 259 262 263 264 262 254 249 253 260 262 264 266 266 265 266 267 267 265 267 270 267 264 262 261 259 258 259 259 259 259 261 263 266 267 268 268 269 269 270 270
249 249 249 252 254 254 254 256 256 255 256 257 257 258 261 264 263 258 254 254 258 260 259 258 261 261 260 263 266 267 268 266 261 258 258 258 258 258 259 260 260 261 262 264 265 266 267 269 270 272 272 271
249 250 249 249 251 253 255 256 257 257 256 257 256 256 257 259 258 257 258 259 259 258 255 255 258 259 260 264 266 264 263 260 256 254 253 255 256 257 258 258 259 260 262 263 265 266 267 269 271 273 273 273
251 251 251 251 250 251 253 255 257 258 258 258 257 256 255 255 256 256 258 260 263 262 259 258 258 258 261 263 261 260 260 258 254 252 252 252 252 253 253 252 253 254 257 258 260 262 263 265 268 270 270 271
253 252 253 253 253 252 252 253 255 257 258 258 258 257 255 255 257 257 256 258 263 264 260 258 258 257 260 260 257 257 257 256 253 252 253 253 252 253 252 252 252 253 255 258 260 262 263 264 265 267 269 269
255 254 254 254 255 255 254 253 254 256 257 258 258 258 257 256 257 258 257 257 259 259 255 253 254 255 260 262 259 257 256 255 256 254 255 256 257 258 257 257 258 258 259 261 262 264 264 265 264 264 265 265
256 256 256 256 256 257 257 257 256 256 256 258 258 259 258 257 257 258 259 258 258 257 254 252 252 255 260 264 264 262 260 258 257 257 256 256 258 260 259 259 260 259 259 261 262 262 262 262 261 260 260 261
255 256 256 257 257 257 258 259 260 258 257 258 259 260 260 259 259 259 260 261 260 260 260 258 259 261 264 266 266 265 262 258 257 257 257 254 255 258 257 256 256 255 254 257 259 259 260 260 259 259 260 263
256 256 256 256 257 258 258 259 261 261 260 259 259 260 261 262 261 260 261 263 263 262 262 262 264 266 268 267 265 263 261 259 258 259 259 256 254 256 256 255 256 253 251 255 259 261 263 262 261 261 264 265
257 256 256 256 256 257 257 258 259 261 262 262 261 261 261 262 263 263 263 263 264 264 263 263 263 265 266 264 262 262 262 262 262 262 262 261 258 257 257 257 258 256 252 253 260 265 267 266 264 264 265 267